GW1821 Weather Reports


Display with metric or nautical units.
time (UTC)temp
F
wind
direction
speed
MPH
gust
MPH
rain 1hr
in
rain 24hr
in
rain mn
in
humidity
%
barometer
mb
20260905003509 79 5 3.0 10.0 0.00 0.00 0.00 77 1011.7
20260905002747 79 331 3.0 10.0 0.00 0.00 0.00 76 1011.7
20260905002239 80 347 3.0 10.0 0.00 0.00 0.00 76 1011.6
20260905001834 80 333 3.0 10.0 0.00 0.00 0.00 75 1011.6
20260905000734 81 348 2.0 9.0 0.00 0.00 0.00 75 1011.2
20260905000226 81 5 2.0 9.0 0.00 0.00 0.00 74 1011.1
20260904235725 81 34 2.0 8.0 0.00 0.00 0.00 74 1011.1
20260904235224 82 331 2.0 8.0 0.00 0.00 0.00 74 1011.0
20260904234721 82 32 2.0 8.0 0.00 0.00 0.00 74 1011.1
20260904234212 82 347 3.0 6.0 0.00 0.00 0.00 74 1011.1
20260904233709 82 5 2.0 6.0 0.00 0.00 0.00 74 1011.1
20260904233208 83 0 2.0 7.0 0.00 0.00 0.00 73 1011.0
20260904232705 83 19 2.0 7.0 0.00 0.00 0.00 72 1011.1
20260904232146 83 13 3.0 9.0 0.00 0.00 0.00 72 1011.1
20260904231640 84 5 3.0 9.0 0.00 0.00 0.00 72 1011.0
20260904231135 84 30 3.0 9.0 0.00 0.00 0.00 71 1010.9
20260904230636 84 347 3.0 9.0 0.00 0.00 0.00 71 1010.9
20260904230128 85 346 2.0 6.0 0.00 0.00 0.00 70 1010.9
20260904225610 85 17 2.0 6.0 0.00 0.00 0.00 69 1010.9
20260904225107 85 55 2.0 8.0 0.00 0.00 0.00 69 1010.9
20260904224606 85 344 3.0 8.0 0.00 0.00 0.00 69 1010.9
20260904224107 86 344 3.0 9.0 0.00 0.00 0.00 69 1010.8
20260904223607 86 36 2.0 9.0 0.00 0.00 0.00 68 1010.7
20260904223320 86 43 3.0 8.0 0.00 0.00 0.00 68 1010.7
20260904222557 87 346 3.0 8.0 0.00 0.00 0.00 66 1010.6
20260904222058 88 5 2.0 9.0 0.00 0.00 0.00 66 1010.5
20260904221556 89 36 2.0 9.0 0.00 0.00 0.00 64 1010.5
20260904221312 89 43 2.0 6.0 0.00 0.00 0.00 63 1010.5
20260904220550 89 9 2.0 7.0 0.00 0.00 0.00 63 1010.4
20260904220051 90 334 3.0 10.0 0.00 0.00 0.00 64 1010.3
20260904215546 90 344 3.0 10.0 0.00 0.00 0.00 66 1010.3
20260904215046 89 5 2.0 8.0 0.00 0.00 0.00 65 1010.2
20260904214550 89 51 2.0 6.0 0.00 0.00 0.00 65 1010.2
20260904214043 89 325 1.0 6.0 0.00 0.00 0.00 64 1010.2
20260904213539 89 27 2.0 7.0 0.00 0.00 0.00 66 1010.3
20260904213041 89 182 2.0 7.0 0.00 0.00 0.00 65 1010.3
20260904212540 89 5 1.0 5.0 0.00 0.00 0.00 66 1010.2
20260904212041 89 35 2.0 7.0 0.00 0.00 0.00 67 1010.3
20260904211541 89 46 1.0 7.0 0.00 0.00 0.00 65 1010.3
20260904211026 89 355 1.0 5.0 0.00 0.00 0.00 66 1010.4
20260904210520 89 339 2.0 6.0 0.00 0.00 0.00 66 1010.4
20260904210231 89 16 2.0 9.0 0.00 0.00 0.00 66 1010.4
20260904205737 89 22 2.0 9.0 0.00 0.00 0.00 65 1010.5
20260904205008 89 321 2.0 9.0 0.00 0.00 0.00 65 1010.5
20260904204504 89 331 2.0 9.0 0.00 0.00 0.00 66 1010.5
20260904203957 88 30 3.0 9.0 0.00 0.00 0.00 67 1010.4
20260904203454 88 31 3.0 9.0 0.00 0.00 0.00 67 1010.5
20260904203214 87 300 2.0 9.0 0.00 0.00 0.00 67 1010.5
20260904202454 87 344 2.0 9.0 0.00 0.00 0.00 68 1010.5
20260904201953 87 27 2.0 8.0 0.00 0.00 0.00 68 1010.5
20260904201448 87 50 2.0 7.0 0.00 0.00 0.00 68 1010.5
20260904201431 86 5 3.0 9.0 0.00 0.00 0.00 69 1010.5
20260904200446 86 5 3.0 9.0 0.00 0.00 0.00 71 1010.5
20260904195947 86 20 3.0 7.0 0.00 0.00 0.00 70 1010.5
20260904195707 85 10 3.0 9.0 0.00 0.00 0.00 73 1010.4
20260904194939 85 44 4.0 12.0 0.00 0.00 0.00 76 1010.5
20260904194437 84 49 4.0 12.0 0.00 0.00 0.00 76 1010.5
20260904193934 84 5 2.0 8.0 0.00 0.00 0.00 76 1010.6
20260904193433 83 315 2.0 8.0 0.00 0.00 0.00 78 1010.6
20260904192924 83 9 2.0 7.0 0.00 0.00 0.00 79 1010.6
20260904192645 82 327 2.0 7.0 0.00 0.00 0.00 81 1010.7
20260904192142 82 331 2.0 6.0 0.00 0.00 0.00 79 1010.7
20260904191412 82 340 1.0 5.0 0.00 0.00 0.00 81 1010.6
20260904190909 82 34 2.0 8.0 0.00 0.00 0.00 81 1010.6
20260904190621 81 50 2.0 8.0 0.00 0.00 0.00 82 1010.7
20260904185901 80 20 1.0 7.0 0.00 0.00 0.00 81 1010.6
20260904185402 80 333 1.0 5.0 0.00 0.00 0.00 82 1010.6
20260904185121 80 327 2.0 9.0 0.00 0.00 0.00 83 1010.7
20260904184622 79 344 3.0 9.0 0.00 0.00 0.00 84 1010.8
20260904183854 79 336 3.0 8.0 0.00 0.00 0.00 84 1010.8
20260904183352 79 47 2.0 8.0 0.00 0.00 0.00 83 1010.8
20260904183114 78 333 2.0 7.0 0.00 0.00 0.00 84 1010.8
20260904182612 78 23 3.0 9.0 0.00 0.00 0.00 84 1010.8
20260904181845 78 36 3.0 9.0 0.00 0.00 0.00 84 1010.8
20260904181341 78 344 3.0 8.0 0.00 0.00 0.00 84 1010.8
20260904181059 77 12 3.0 7.0 0.00 0.00 0.00 84 1010.8
20260904180335 77 17 3.0 9.0 0.00 0.00 0.00 85 1010.8
20260904175830 76 5 3.0 9.0 0.00 0.00 0.00 85 1010.8
20260904175324 76 36 3.0 9.0 0.00 0.00 0.00 85 1010.8
20260904175317 76 46 3.0 9.0 0.00 0.00 0.00 85 1010.8
20260904174537 76 5 3.0 8.0 0.00 0.00 0.00 86 1010.8
20260904173816 76 323 3.0 9.0 0.00 0.00 0.00 85 1010.9
20260904173317 76 346 3.0 11.0 0.00 0.00 0.00 86 1010.8
20260904172814 76 33 3.0 11.0 0.00 0.00 0.00 86 1010.8
20260904172532 76 5 3.0 9.0 0.00 0.00 0.00 87 1010.9
20260904171811 76 328 2.0 8.0 0.00 0.00 0.00 87 1010.9
20260904171312 75 29 2.0 8.0 0.00 0.00 0.00 87 1010.9
20260904171025 75 64 3.0 9.0 0.00 0.00 0.00 88 1010.8
20260904170302 75 26 3.0 9.0 0.00 0.00 0.00 89 1010.8
20260904165802 75 343 2.0 8.0 0.00 0.00 0.00 89 1010.7
20260904165305 75 313 2.0 8.0 0.00 0.00 0.00 89 1010.7
20260904164756 75 355 1.0 5.0 0.00 0.00 0.00 90 1010.6
20260904164255 75 63 1.0 7.0 0.00 0.00 0.00 90 1010.6
20260904164228 75 326 1.0 7.0 0.00 0.00 0.00 91 1010.5
20260904163248 75 44 2.0 6.0 0.00 0.00 0.00 91 1010.5
20260904162739 75 32 2.0 5.0 0.00 0.00 0.00 91 1010.4
20260904162238 74 57 2.0 7.0 0.00 0.00 0.00 91 1010.3
20260904161736 74 27 3.0 7.0 0.00 0.00 0.00 91 1010.2
20260904161239 74 36 2.0 5.0 0.00 0.00 0.00 91 1010.2
20260904160732 74 61 2.0 9.0 0.00 0.00 0.00 92 1010.1
20260904160216 74 52 2.0 9.0 0.00 0.00 0.00 92 1010.1
20260904155717 74 25 1.0 7.0 0.00 0.00 0.00 92 1010.1
20260904155214 74 347 2.0 8.0 0.00 0.00 0.00 92 1010.1
20260904154933 74 25 3.0 8.0 0.00 0.00 0.00 92 1010.1
20260904154201 74 325 2.0 6.0 0.00 0.00 0.00 92 1010.0
20260904153658 74 346 2.0 7.0 0.00 0.00 0.00 92 1009.9
20260904153153 74 26 2.0 7.0 0.00 0.00 0.00 93 1009.9
20260904152654 74 355 1.0 6.0 0.00 0.00 0.00 93 1009.8
20260904152152 73 15 1.0 5.0 0.00 0.00 0.00 93 1009.8
20260904151653 73 15 3.0 8.0 0.00 0.00 0.00 93 1009.6
20260904151410 73 327 3.0 8.0 0.00 0.00 0.00 93 1009.6
20260904150652 73 340 2.0 5.0 0.00 0.00 0.00 93 1009.5
20260904150150 73 333 2.0 5.0 0.00 0.00 0.00 93 1009.5
20260904145905 73 317 2.0 5.0 0.00 0.00 0.00 93 1009.5
20260904145146 73 322 2.0 5.0 0.00 0.00 0.00 93 1009.4
20260904144643 73 338 1.0 4.0 0.00 0.00 0.00 93 1009.3
20260904144140 72 26 1.0 3.0 0.00 0.00 0.00 93 1009.3
20260904143628 72 35 1.0 3.0 0.00 0.00 0.00 93 1009.3
20260904143131 72 40 1.0 3.0 0.00 0.00 0.00 93 1009.2
20260904142602 72 46 0.0 2.0 0.00 0.00 0.00 94 1009.1
20260904142058 72 46 0.0 2.0 0.00 0.00 0.00 94 1009.0
20260904141556 71 47 0.0 1.0 0.00 0.00 0.00 94 1008.9
20260904141318 71 46 0.0 0.0 0.00 0.00 0.00 94 1008.7
20260904140552 71 47 0.0 1.0 0.00 0.00 0.00 94 1008.7
20260904140038 71 47 0.0 2.0 0.00 0.00 0.00 94 1008.8
20260904135524 70 47 0.0 2.0 0.00 0.00 0.00 94 1008.7
20260904135009 70 34 0.0 2.0 0.00 0.00 0.00 94 1008.7
20260904134518 70 28 0.0 1.0 0.00 0.00 0.00 94 1008.8
20260904134010 70 28 0.0 1.0 0.00 0.00 0.00 94 1008.8
20260904133731 70 28 0.0 1.0 0.00 0.00 0.00 94 1008.8
20260904133000 70 28 0.0 1.0 0.00 0.00 0.00 94 1008.8
20260904132442 70 28 0.0 3.0 0.00 0.00 0.00 94 1008.8
20260904131932 70 28 0.0 3.0 0.00 0.00 0.00 94 1008.9
20260904131426 69 12 0.0 3.0 0.00 0.00 0.00 94 1008.8
20260904130922 69 12 1.0 3.0 0.00 0.00 0.00 94 1008.8
20260904130411 69 12 1.0 4.0 0.00 0.00 0.00 94 1008.9
20260904125902 69 12 1.0 4.0 0.00 0.00 0.00 93 1008.9
20260904125348 69 9 1.0 4.0 0.00 0.00 0.00 93 1008.8
20260904124836 69 28 0.0 4.0 0.00 0.00 0.00 93 1008.6
20260904124328 69 355 1.0 3.0 0.00 0.00 0.00 93 1008.7
20260904124044 69 355 1.0 4.0 0.00 0.00 0.00 93 1008.6
20260904123323 69 5 1.0 4.0 0.00 0.00 0.00 93 1008.7
20260904123043 69 299 1.0 3.0 0.00 0.00 0.00 92 1008.5
20260904122320 69 336 1.0 4.0 0.00 0.00 0.00 92 1008.5
20260904121811 70 34 1.0 4.0 0.00 0.00 0.00 92 1008.3
20260904121312 70 342 1.0 4.0 0.00 0.00 0.00 92 1008.2
20260904120807 70 355 1.0 5.0 0.00 0.00 0.00 92 1008.2
20260904120308 70 5 1.0 5.0 0.00 0.00 0.00 92 1008.2
20260904115750 70 122 0.0 3.0 0.00 0.00 0.00 91 1008.2
20260904115250 70 19 0.0 3.0 0.00 0.00 0.00 92 1008.1
20260904114735 70 19 1.0 4.0 0.00 0.00 0.00 91 1008.1
20260904114235 70 68 1.0 4.0 0.00 0.00 0.00 91 1008.0
20260904113733 70 68 1.0 2.0 0.00 0.00 0.00 91 1008.0
20260904113217 70 46 1.0 3.0 0.00 0.00 0.00 91 1007.9
20260904112712 70 45 1.0 3.0 0.00 0.00 0.00 91 1007.8
20260904112214 70 46 0.0 3.0 0.00 0.00 0.00 91 1007.7
20260904111651 70 26 0.0 2.0 0.00 0.00 0.00 91 1007.8
20260904111101 70 26 0.0 1.0 0.00 0.00 0.00 91 1007.7
20260904110748 70 26 0.0 2.0 0.00 0.00 0.00 91 1007.7
20260904110000 71 26 0.0 2.0 0.00 0.00 0.00 91 1007.8
20260904105449 71 26 0.0 2.0 0.00 0.00 0.00 92 1007.8
20260904104935 71 26 1.0 4.0 0.00 0.00 0.00 92 1007.8
20260904104646 71 41 1.0 4.0 0.00 0.00 0.00 92 1007.9
20260904103921 71 103 1.0 3.0 0.00 0.00 0.00 92 1007.9
20260904103522 71 11 0.0 4.0 0.00 0.00 0.00 92 1007.8
20260904102418 72 47 1.0 4.0 0.00 0.00 0.00 93 1007.8
20260904101912 72 36 1.0 4.0 0.00 0.00 0.00 93 1007.8
20260904101406 72 40 1.0 5.0 0.00 0.00 0.00 93 1007.8
20260904100906 72 117 1.0 5.0 0.00 0.00 0.00 93 1007.8
20260904100616 73 34 1.0 6.0 0.00 0.00 0.00 93 1007.7
20260904095856 73 34 1.0 6.0 0.00 0.00 0.00 93 1007.7
20260904095346 73 31 1.0 6.0 0.00 0.00 0.00 94 1007.7
20260904094847 73 44 1.0 6.0 0.00 0.00 0.00 94 1007.7
20260904094346 73 67 0.0 4.0 0.00 0.00 0.00 94 1007.6
20260904093810 73 40 1.0 5.0 0.00 0.00 0.00 94 1007.6
20260904093526 73 40 1.0 6.0 0.00 0.00 0.00 94 1007.8
20260904092740 73 67 1.0 6.0 0.00 0.00 0.00 94 1007.4
20260904092240 73 49 1.0 5.0 0.00 0.00 0.00 94 1007.9
20260904091741 73 5 1.0 4.0 0.00 0.00 0.00 93 1007.4
20260904091500 73 5 1.0 5.0 0.00 0.00 0.00 93 1007.7
20260904090721 73 27 1.0 4.0 0.00 0.00 0.00 93 1007.8
20260904090217 73 5 2.0 5.0 0.00 0.00 0.00 93 1007.8
20260904085711 73 314 2.0 5.0 0.00 0.00 0.00 93 1007.7
20260904085211 73 345 1.0 5.0 0.00 0.00 0.00 93 1007.8
20260904084711 73 274 2.0 10.0 0.00 0.00 0.00 93 1007.3
20260904084200 73 320 2.0 10.0 0.00 0.00 0.00 93 1007.6
20260904083931 73 44 0.0 3.0 0.00 0.00 0.00 92 1007.1
20260904083150 73 44 0.0 0.0 0.00 0.00 0.00 92 1006.9
20260904082648 73 44 0.0 1.0 0.00 0.00 0.00 92 1006.8
20260904082148 73 44 0.0 1.0 0.00 0.00 0.00 92 1006.8
20260904081642 74 44 0.0 0.0 0.00 0.00 0.00 92 1006.8
20260904081116 74 44 0.0 0.0 0.00 0.00 0.00 92 1006.8
20260904080612 74 44 0.0 0.0 0.00 0.00 0.00 92 1006.8
20260904080317 74 44 0.0 0.0 0.00 0.00 0.00 92 1006.8
20260904080045 74 44 0.0 0.0 0.00 0.00 0.00 92 1006.8
20260904075034 74 44 0.0 0.0 0.00 0.00 0.00 91 1006.8
20260904074528 74 44 0.0 0.0 0.00 0.00 0.00 91 1006.8
20260904074242 74 44 0.0 0.0 0.00 0.00 0.00 91 1006.7
20260904073512 74 44 0.0 0.0 0.00 0.00 0.00 91 1006.8
20260904073005 74 44 0.0 1.0 0.00 0.00 0.00 91 1006.7
20260904072509 74 44 0.0 1.0 0.00 0.00 0.00 91 1006.7
20260904072005 74 44 0.0 1.0 0.00 0.00 0.00 91 1006.7
20260904071500 74 44 0.0 1.0 0.00 0.00 0.00 90 1006.8
20260904071216 75 44 0.0 1.0 0.00 0.00 0.00 90 1006.8
20260904070452 75 44 0.0 0.0 0.00 0.00 0.00 90 1006.9
20260904065941 75 44 0.0 1.0 0.00 0.00 0.00 90 1006.8
20260904065406 75 44 0.0 1.0 0.00 0.00 0.00 90 1006.9
20260904064906 75 44 0.0 1.0 0.00 0.00 0.00 90 1006.9
20260904064353 75 44 0.0 2.0 0.00 0.00 0.00 90 1006.9
20260904064117 75 44 0.0 2.0 0.00 0.00 0.00 90 1006.9
20260904063345 75 44 0.0 1.0 0.00 0.00 0.00 90 1006.9
20260904062840 75 44 0.0 1.0 0.00 0.00 0.00 90 1007.0
20260904062543 75 44 0.0 1.0 0.00 0.00 0.00 89 1006.9
20260904061825 75 44 0.0 1.0 0.00 0.00 0.00 89 1006.9
20260904061315 75 44 0.0 1.0 0.00 0.00 0.00 89 1006.9
20260904060811 75 44 0.0 1.0 0.00 0.00 0.00 89 1007.0
20260904060312 75 44 0.0 1.0 0.00 0.00 0.00 89 1007.0
20260904060037 75 44 0.0 1.0 0.00 0.00 0.00 89 1007.0
20260904055525 75 44 0.0 1.0 0.00 0.00 0.00 88 1007.0
20260904054804 76 70 0.0 1.0 0.00 0.00 0.00 88 1007.0
20260904054519 76 83 0.0 1.0 0.00 0.00 0.00 88 1007.0
20260904053735 76 84 0.0 2.0 0.00 0.00 0.00 88 1006.9
20260904053216 76 89 0.0 2.0 0.00 0.00 0.00 88 1007.0
20260904052711 76 88 0.0 1.0 0.00 0.00 0.00 87 1007.0
20260904052154 76 88 0.0 1.0 0.00 0.00 0.00 87 1006.9
20260904052132 76 88 0.0 1.0 0.00 0.00 0.00 87 1006.9
20260904051117 76 88 0.0 1.0 0.00 0.00 0.00 87 1006.8
20260904050611 76 88 0.0 1.0 0.00 0.00 0.00 87 1006.8
20260904050112 76 88 0.0 1.0 0.00 0.00 0.00 87 1006.8
20260904045844 76 88 0.0 2.0 0.00 0.00 0.00 87 1006.9
20260904045104 76 88 0.0 2.0 0.00 0.00 0.00 87 1006.8
20260904044602 77 88 0.0 1.0 0.00 0.00 0.00 86 1006.8
20260904044104 77 89 0.0 2.0 0.00 0.00 0.00 86 1006.8
20260904043556 77 89 1.0 2.0 0.00 0.00 0.00 86 1006.8
20260904043047 77 88 0.0 2.0 0.00 0.00 0.00 86 1006.7
20260904042538 77 88 0.0 2.0 0.00 0.00 0.00 85 1006.9
20260904042040 77 88 0.0 2.0 0.00 0.00 0.00 85 1006.7
20260904041531 78 105 0.0 0.0 0.00 0.00 0.00 85 1006.7
20260904041017 78 105 0.0 0.0 0.00 0.00 0.00 84 1006.8
20260904040459 78 105 0.0 1.0 0.00 0.00 0.00 84 1006.8
20260904035952 78 105 0.0 1.0 0.00 0.00 0.00 84 1006.8
20260904035455 78 105 0.0 1.0 0.00 0.00 0.00 84 1006.7
20260904035156 79 105 0.0 1.0 0.00 0.00 0.00 83 1006.6
20260904034430 79 105 0.0 1.0 0.00 0.00 0.00 83 1006.6
20260904033926 79 105 0.0 1.0 0.00 0.00 0.00 83 1006.6
20260904033904 79 105 0.0 2.0 0.00 0.00 0.00 83 1006.6
20260904032911 79 105 0.0 2.0 0.00 0.00 0.00 82 1006.7
20260904032408 80 128 0.0 2.0 0.00 0.00 0.00 82 1006.6
20260904031903 80 127 1.0 6.0 0.00 0.00 0.00 82 1006.6
20260904031356 80 153 2.0 7.0 0.00 0.00 0.00 82 1006.5
20260904031056 80 96 3.0 7.0 0.00 0.00 0.00 81 1006.4
20260904030339 80 140 3.0 10.0 0.00 0.00 0.00 81 1006.3
20260904025835 80 146 3.0 10.0 0.00 0.00 0.00 81 1006.4
20260904025333 80 157 2.0 8.0 0.00 0.00 0.00 81 1006.4
20260904024831 80 134 2.0 7.0 0.00 0.00 0.00 80 1006.4
20260904024333 80 144 2.0 8.0 0.00 0.00 0.00 80 1006.5
20260904023827 80 157 2.0 8.0 0.00 0.00 0.00 80 1006.4
20260904023323 80 130 2.0 9.0 0.00 0.00 0.00 80 1006.4
20260904022821 81 60 2.0 9.0 0.00 0.00 0.00 79 1006.3
20260904022317 81 132 2.0 9.0 0.00 0.00 0.00 79 1006.3
20260904021814 81 157 2.0 6.0 0.00 0.00 0.00 79 1006.4
20260904021314 81 193 1.0 5.0 0.00 0.00 0.00 79 1006.4
20260904020812 81 165 2.0 7.0 0.00 0.00 0.00 79 1006.4
20260904020309 81 164 2.0 7.0 0.00 0.00 0.00 79 1006.3
20260904015805 81 149 1.0 5.0 0.00 0.00 0.00 79 1006.4
20260904015307 81 166 1.0 5.0 0.00 0.00 0.00 78 1006.4
20260904014806 81 157 0.0 2.0 0.00 0.00 0.00 78 1006.5
20260904014307 81 175 0.0 2.0 0.00 0.00 0.00 78 1006.4
20260904013803 82 175 0.0 2.0 0.00 0.00 0.00 78 1006.4
20260904013303 82 175 0.0 1.0 0.00 0.00 0.00 78 1006.4
20260904012753 82 175 0.0 1.0 0.00 0.00 0.00 78 1006.4
20260904012245 82 165 0.0 1.0 0.00 0.00 0.00 78 1006.3
20260904011738 82 166 0.0 1.0 0.00 0.00 0.00 77 1006.3
20260904011239 82 180 0.0 1.0 0.00 0.00 0.00 77 1006.2
20260904010731 83 180 0.0 1.0 0.00 0.00 0.00 77 1006.2
20260904010216 83 178 0.0 1.0 0.00 0.00 0.00 77 1006.2
20260904005700 83 178 0.0 3.0 0.00 0.00 0.00 76 1006.1
20260904005159 83 171 0.0 3.0 0.00 0.00 0.00 77 1006.2
20260904004652 83 165 0.0 4.0 0.00 0.00 0.00 75 1006.1
20260904004150 83 165 0.0 4.0 0.00 0.00 0.00 76 1006.0